Regional Weather Roundup
Issued by NWS

Home | Current Version | Previous Version | Graphics & Text | Print | Product List | Glossary On
Versions: 1 2 3 4 5 6 7 8 9 10 11 12 13 14 15 16 17 18 19 20 21 22 23 24 25 26 27 28 29 30 31 32 33 34 35 36 37 38 39 40 41 42 43 44 45 46 47 48 49 50
457
ASUS44 KJAN 010803
RWRMS

MISSISSIPPI HOURLY WEATHER ROUNDUP
NATIONAL WEATHER SERVICE JACKSON MS
300 AM CDT MON SEP 01 2014

NOTE: "FAIR: INDICATES FEW OR NO CLOUDS BELOW 12,000 FEET WITH NO
SIGNIFICANT WEATHER AND/OR OBSTRUCTIONS TO VISIBILITY.

MSZ001>002-007>008-010>013-018>021-025>028-034>036-010900-
NORTHWEST MISSISSIPPI

CITY           SKY/WX    TMP DP  RH WIND       PRES   REMARKS
CLARKSDALE     MOCLDY    75  75 100 CALM      30.01S
CLEVELAND      FAIR      76  76  99 S6        30.00R
GREENWOOD      PTCLDY    76  73  91 S7        30.01S
GREENVILLE     CLEAR     77  74  90 S7        29.99S
GRENADA        FAIR      73  72  94 CALM      30.02S
OLIVE BRANCH   CLEAR     73 N/A N/A S8        30.00F
OXFORD         FAIR      73  72  94 CALM      30.05R
TUNICA         SUNNY     75  73  94 S5        30.00S
$$

MSZ003>006-009-014>017-022>024-029>033-037>039-010900-
NORTHEAST MISSISSIPPI

CITY           SKY/WX    TMP DP  RH WIND       PRES   REMARKS
BELMONT        FAIR      74  72  92 S3        30.05S
COLUMBUS AFB   PTCLDY    73  72  99 S2        30.04S
CORINTH        PTSUNNY   73  72  94 S6        30.03S FOG
GOLDN TRIANGLE PTCLDY    73  70  88 S6        30.04S
STARKVILLE     FAIR      72  72 100 CALM      30.04S
TUPELO         CLEAR     75  71  87 SW5       30.03R
$$

MSZ040-058-010900-
CENTRAL MISSISSIPPI

CITY           SKY/WX    TMP DP  RH WIND       PRES   REMARKS
JACKSON INTL   CLEAR     74  72  93 S3        30.04S
JACKSON HAWKNS CLEAR     76  72  87 S7        30.04S
MERIDIAN KEY   CLEAR     72  70  93 CALM      30.05S
MERIDIAN NAS   CLEAR     73  71  93 CALM      30.06R
RAYMOND        FAIR      75  72  88 S5        30.04S
VICKSBURG      CLEAR     76  73  91 S7        30.01S
$$

MSZ059>079-010900-
SOUTH MISSISSIPPI

CITY           SKY/WX    TMP DP  RH WIND       PRES   REMARKS
BROOKHAVEN     FAIR      75  75 100 CALM      30.05S FOG
HATTIESBURG    CLEAR     74  72  93 CALM      30.05S
MCCOMB         CLEAR     75  73  93 CALM      30.03F FOG
NATCHEZ        CLEAR     75  72  88 SE6       30.03S
PINE BELT      CLEAR    N/A N/A N/A CALM      30.05S
$$

MSZ080>082-010900-
COASTAL MISSISSIPPI

CITY           SKY/WX    TMP DP  RH WIND       PRES   REMARKS
BILOXI         PTCLDY    83  76  79 S10       30.02F HX  92
PASCAGOULA     PTCLDY    73  72  96 CALM      30.03S FOG
GULFPORT       CLEAR     83  75  77 SE12      30.01F HX  90
$$



USA.gov is the U.S. government's official web portal to all federal, state and local government web resources and services.